Regional Weather Roundup
Issued by NWS Newport/Morehead, NC

Current Version | Previous Version | Graphics & Text | Print | Product List | Glossary On
Versions: 1 2 3 4 5 6 7 8 9 10 11 12 13 14 15 16 17 18 19 20 21 22 23 24 25 26 27 28 29 30 31 32 33 34 35 36 37 38 39 40 41 42 43 44 45 46 47 48 49 50
000 ASUS42 KMHX 040513 RWRMHX WEATHER ROUNDUP FOR EASTERN NORTH CAROLINA NATIONAL WEATHER SERVICE NEWPORT/MOREHEAD CITY NC 100 AM EDT TUE AUG 04 2015 NOTE: "FAIR" INDICATES FEW OR NO CLOUDS BELOW 12,000 FEET WITH NO SIGNIFICANT WEATHER AND/OR OBSTRUCTIONS TO VISIBILITY NCZ015>017-031-032-045>047-102-103-040600- NORTH COAST CITY SKY/WX TMP DP RH WIND PRES REMARKS EDENTON N/A 76 73 91 S10 29.97S ELIZABETH CITY CLEAR 77 74 90 S14 29.96S KITTY HAWK CLEAR 78 74 86 SW7G17 29.96S MANTEO CLEAR 79 75 87 SW18 29.98S $$ NCZ045>047-081-094-103-104-040600- CENTRAL COAST CITY SKY/WX TMP DP RH WIND PRES REMARKS FRISCO LGT RAIN 79 75 87 SW15G23 30.00S SWANQUARTER N/A 81 N/A N/A S15G24 29.94F $$ NCZ095-097-098-100-101-040600- SOUTHERN COAST CITY SKY/WX TMP DP RH WIND PRES REMARKS BEAUFORT CLOUDY 80 78 94 S12 30.00S CEDAR ISLAND N/A 79 N/A N/A S8 30.03S JACKSONVILLE CLOUDY 79 76 90 CALM 29.98S PINEY ISLAND PTCLDY N/A N/A N/A S7 29.99F WILMINGTON MOCLDY 79 76 90 S6 29.98S $$ NCZ011>013-027>030-043-044-078>080-089-090>093-098-040600- COASTAL PLAIN CITY SKY/WX TMP DP RH WIND PRES REMARKS AHOSKIE CLEAR 75 71 87 S8 29.96R CLINTON CLEAR 75 75 99 CALM 29.99S ELIZABETHTOWN MOCLDY 77 73 86 CALM 29.98F GOLDSBORO CLEAR 76 75 97 S5 29.97R GREENVILLE CLEAR 77 73 88 SW8 29.99S HAVELOCK MOCLDY 79 76 90 S5 30.00S KENANSVILLE CLEAR N/A N/A N/A CALM 30.00S KINSTON CLEAR 75 73 94 S7 29.99S NEW BERN PTCLDY 78 74 87 S6 30.00S RICHLANDS CLOUDY 75 72 88 CALM 30.00R ROCKY MOUNT CLEAR 77 73 87 SW12 29.97R WASHINGTON CLEAR 75 73 93 S6 29.98S WHITEVILLE PTCLDY 75 72 91 CALM 29.97S $$ AMZ130-135-150-152-154-156-158-170-250-252-270-ANZ085-086-088-633-658-670-040600- MARINE OBSERVATIONS STATION/POSITION TIME TEMP WIND PRES WAVE SWELL AIR SEA DIR/SP/G HT/PER HT/PER (UTC) (F) (DEG/KT/KT) (MB) (FT/S) (FT/S) CHESAPEAKE LIGHT 0500 79 210/ 23/ 25 1013.6 64 E VA BEACH 0450 80 81 210/ 23/ 29 1013.6 6/ 6 2/11 DUCK 0400 78 64 200/ 16/ 21 1013.7 2 E DUCK 0411 69 N/A 2/11 2/11 OREGON INLET 0400 80 81 180/ 19/ 22 1015.4 13E OREGON INLT 0500 79 N/A 4/ 5 2/11 HATTERAS CG 0400 79 79 180/ 7/ 11 1015.6 DIAMOND BUOY 0450 82 84 190/ 21/ 25 1015.8 5/ 7 2/11 CAPE LOOKOUT 0500 80 170/ 13/ 14 1015.5 BEAUFORT LAB 0400 81 80 180/ 16/ 18 1015.0 30 SE NEW RVR IN NOT AVBL 27 SE WRIGHTSVLE 0400 79 82 200/ 12/ 16 N/A 5 SE WRIGHTSVLE 0408 82 180/ 12/ 16 1015.3 225 S CAPE HAT 0450 81 81 170/ 12/ 14 1018.1 5/ 7 3/ 7 41 SE CHARLESTON 0450 83 83 170/ 17/ 21 1012.5 6/ 7 2/10 $$

USA.gov is the U.S. government's official web portal to all federal, state and local government web resources and services.